Showing default

VELOX 1, 40057

Orbit data source: Space-Track

VELOX 1, 40057 is a payload satellite owned by NTU (SG) in SSO that was launched on Mon, 30 Jun 2014 UTC via a PSLV launch vehicle from the Sirharikota (SRI). Payload-class satellites include a variety of spacecraft equipped with specific instruments for various scientific and technological missions. These include communications satellites like Starlink; space stations such as the ISS; scientific satellites like the Hubble; Earth observation satellites from companies like Planet Labs, Umbra, and HawkEye 360; GPS; miniature CubeSats for education and research; and military/defense satellites.

Loading next visibility...
Identifier
40057, 2014-034E
Orbit
SSO
Country
Flag of UnknownUnknown / SING
Related business
Manufacturer
NTU
Mission
Non-operational Amateur Technology
Bus & Motor
CUBESAT 3U, Unknown motor
Mass
4.25 kg wet, 4.25 kg dry
Launch date (UTC)
2014-06-30 (11 years ago)
Launch vehicle
PSLV
Launch site
Sirharikota (SRI)
Object type
Payload
Rocket body
Debris
Shape & HBR
Box + 4 Pan, 0.2 m
Radar Cross Section
0.092 m², Medium (>0.1 m² and < 1m²)

Expand to show TLE details & history
Last TLE update: 12 hours ago

TLE from 12 hours ago
0 VELOX 1
1 40057U 14034E   25305.66417264  .00006115  00000-0  56707-3 0  9990
2 40057  98.2715 192.9775 0006886 313.5399  46.5247 14.94832660612573
Epoch: 2025-11-01T15:56Z
TLE epoch observation values (Epoch: 2025-11-01T15:56:24.516Z)
Latitude
-0.00003°
Longitude
-87.31565°
Altitude
582.625 km
Speed
7.571 km/s
True Right ascension
12h 51m 54s
True Declination
0° 00' 00"
Sunlit
Object was in daylight at epoch
Visualization orbit readout
Latitude
Unknown
Longitude
Unknown
Altitude
Unknown
Speed
Unknown
Apparent Right ascension
Unknown
Apparent Declination
Unknown
Sunlit
N/A
Visualization observer readout
Local Sidereal Time
00:10:24
Azimuth
Unknown
Elevation
Unknown
Doppler factor
Unknown
Orbital elements
Apogee altitude
584.722 km
Perigee altitude
575.139 km
Semi-major axis
6,958.067 km
Eccentricity
0.00069
Inclination
98.2715°
RAAN
192.9775°
Arg. of periapsis
313.5399°
True anomaly
46.58199°
Mean anomaly
46.5247°
Eccentric anomaly
46.55334°
Mean motion
3.73947 °/min
Orbital period
96.27 mins
BSTAR
0.00056707
Loading maneuver chart data...
Computing Atmospheric mass density...
Loading historical data...
Loading historical data...
Loading historical data...
Loading historical data...
Loading historical data...
Loading historical data...
Loading historical data...
Other satellites on launch #34 in the year 2014 (2014-06-30 UTC)

Documentation

Showing up to 5 results
|